Simultaneous Nadir Overpasses (SNOs) Predictions

Prediction of SNOs between NOAA-19 and METOP-C Satellite Orbit:

Table of predicted SNOs for the next 14.0 days since TLE Epoch: 6/8/2024
Index Date (NOAA-19) Time (NOAA-19) Lat,Lon (NOAA-19) SZA (NOAA-19 ) Date (METOP-C) Time (METOP-C) Lat,Lon (METOP-C) SZA (METOP-C ) Distance(km) Time Diff (sec)
1 06/13/2024 22:57:15 -79.49, 33.30 123.31 06/13/2024 22:58:30 -79.48, 33.18 123.31 2.84 75
2 06/13/2024 23:48:10 79.53,-159.11 56.75 06/13/2024 23:49:09 79.52,-159.14 56.76 0.62 59
3 06/14/2024 00:39:09 -79.61, 8.93 123.13 06/14/2024 00:39:48 -79.60, 8.82 123.14 2.53 39
4 06/14/2024 01:30:04 79.64, 176.52 56.92 06/14/2024 01:30:27 79.64, 176.51 56.93 0.33 23
5 06/14/2024 02:21:03 -79.72, -15.42 122.96 06/14/2024 02:21:06 -79.71, -15.52 122.97 2.23 3
6 06/14/2024 03:11:58 79.75, 152.18 57.10 06/14/2024 03:11:45 79.75, 152.19 57.09 0.12 13
7 06/14/2024 04:02:57 -79.83, -39.74 122.78 06/14/2024 04:02:24 -79.82, -39.83 122.80 1.93 33
8 06/14/2024 04:53:52 79.86, 127.87 57.28 06/14/2024 04:53:03 79.86, 127.88 57.26 0.31 49



Historial Predications of SNOs between NOAA-19 and METOP-C
